Regional Weather Roundup
Issued by NWS Albany, NY

Home | Current Version | Previous Version | Text Only | Print | Product List | Glossary On
Versions: 1 2 3 4 5 6 7 8 9 10 11 12 13 14 15 16 17 18 19 20 21 22 23 24 25 26 27 28 29 30 31 32 33 34 35 36 37 38 39 40 41 42 43 44 45 46 47 48 49 50
000
ASUS41 KALY 010610
RWRALY

NEW YORK STATE HOURLY WEATHER ROUNDUP
NATIONAL WEATHER SERVICE ALBANY NY
200 AM EDT FRI AUG 01 2014

NOTE: "FAIR" INDICATES FEW OR NO CLOUDS BELOW 12,000 FEET WITH NO
SIGNIFICANT WEATHER AND/OR NO OBSTRUCTIONS TO VISIBILITY.

NYZ032-033-038>043-046>054-057>066-NYZ062>081-010700-
EAST


CITY           SKY/WX    TMP DP  RH WIND       PRES   REMARKS
ALBANY         PTCLDY    62  60  93 CALM      30.14S
GLENS FALLS    FOG       58  57  97 CALM      30.13F VSB 3/4
POUGHKEEPSIE   CLEAR     64  61  90 CALM      30.14S
NEWBURGH       MOCLDY    64  61  88 CALM      30.17S
MONTGOMERY     PTCLDY    61  59  93 CALM      30.15S
WHITE PLAINS   CLEAR     65  64  97 CALM      30.16S
ISLIP          MOCLDY    73  68  84 S6        30.16S
NEW YORK CITY  PTCLDY    73  64  73 S9        30.15R
CENTRAL PARK   CLEAR     73  64  73 CALM      30.18S
$$

NYZ005>009-017-018-044>046-055-056-010700-
CENTRAL


CITY           SKY/WX    TMP DP  RH WIND       PRES   REMARKS
FULTON         CLEAR     61  58  90 VRB3      30.10F
SYRACUSE       MOCLDY    61  59  93 E3        30.11S
ROME           PTCLDY    60  58  92 SE5       30.14S
ELMIRA         CLEAR     52  52 100 CALM      30.14R FOG
BINGHAMTON     CLEAR     63  58  83 S5        30.16R
MONTICELLO     PTCLDY    59  57  94 CALM      30.19S
$$

NYZ026>034-041>043-010700-
NORTH


CITY           SKY/WX    TMP DP  RH WIND       PRES   REMARKS
WATERTOWN      CLEAR     61  51  70 VRB3      30.09S
FORT DRUM      NOT AVBL
MASSENA        CLEAR     53  53 100 CALM      30.08S
SARANAC LAKE   CLEAR     45  44  97 CALM      30.13S
PLATTSBURGH    CLEAR     57  54  89 SW3       30.10S
$$

NYZ001>004-010>016-019>021-010700-
WEST


CITY           SKY/WX    TMP DP  RH WIND       PRES   REMARKS
BUFFALO        MOCLDY    62  54  74 S7        30.07F
DUNKIRK        MOCLDY    67  50  54 S13G22    30.08S
JAMESTOWN      CLEAR     55  52  88 S5        30.13F
WELLSVILLE     CLEAR     60  51  72 S3        30.17F
ROCHESTER      CLOUDY    60  55  83 SW5       30.09S
PENN YAN       CLEAR     61  59  93 SW7       30.13S
$$

             KEY
       WCI = WIND CHILL INDEX
       VSB = VISIBILITY
       HX  = HEAT INDEX
$$



USA.gov is the U.S. government's official web portal to all federal, state and local government web resources and services.